Zurück zum Katalog

STARLINK-6232

AktivKommunikationVLEO
NORAD 57085·PAYLOAD·🇺🇸 United States

Gestartet Jun 22, 2023 von Vandenberg Space Force Base

Loading…

Nächste Überflüge (nächste 24 Stunden)

TLE

AktuellSource: CelesTrak SupGP

Epoche: Sep 15, 2026, 02:25 UTC

1 57085C 23088AP  26258.10118056  .00004243  00000+0  15388-3 0  2589
2 57085  43.0029 106.0367 0001583 271.5589  65.3707 15.27536807    15

Verfolge STARLINK-6232 in Echtzeit mit AllMySat

Download on the App Store